KA1AL Weather Reports


Display with metric or nautical units.
time (UTC)temp
F
wind
direction
speed
MPH
gust
MPH
rain 1hr
in
rain 24hr
in
rain mn
in
humidity
%
barometer
mb
20260508035717 39 268 5.0 6.0 0.00 0.10 0.10 74 1005.4
20260508035214 39 255 3.0 5.0 0.00 0.10 0.10 74 1005.5
20260508034710 39 269 3.0 5.0 0.00 0.10 0.10 75 1005.5
20260508034208 40 252 3.0 3.0 0.00 0.10 0.10 73 1005.6
20260508033705 40 204 2.0 2.0 0.00 0.10 0.10 72 1005.5
20260508033204 40 228 3.0 5.0 0.00 0.10 0.10 72 1005.3
20260508032700 40 217 3.0 3.0 0.00 0.10 0.10 72 1005.4
20260508032157 40 209 3.0 3.0 0.00 0.10 0.10 73 1005.3
20260508031654 39 239 3.0 3.0 0.00 0.10 0.10 74 1005.3
20260508031150 39 240 4.0 5.0 0.00 0.10 0.10 74 1005.3
20260508030647 39 223 3.0 5.0 0.00 0.10 0.10 75 1005.2
20260508030145 39 226 3.0 3.0 0.00 0.10 0.10 76 1005.3
20260508025640 38 267 3.0 3.0 0.00 0.10 0.10 77 1005.3
20260508025138 39 212 1.0 1.0 0.00 0.10 0.10 76 1005.5
20260508024633 39 161 0.0 1.0 0.00 0.10 0.10 76 1005.5
20260508024131 38 139 1.0 1.0 0.00 0.10 0.10 76 1005.4
20260508023627 38 89 1.0 1.0 0.00 0.10 0.10 77 1005.3
20260508023125 39 105 2.0 2.0 0.00 0.10 0.10 76 1005.2
20260508022620 41 162 0.0 0.0 0.00 0.10 0.10 70 1005.2
20260508022118 41 190 0.0 0.0 0.00 0.10 0.10 70 1005.2
20260508021613 41 170 1.0 1.0 0.00 0.10 0.10 70 1005.0
20260508021110 41 189 1.0 1.0 0.00 0.10 0.10 68 1005.1
20260508020608 42 175 0.0 0.0 0.00 0.10 0.10 68 1005.4
20260508020105 42 231 1.0 2.0 0.00 0.10 0.10 68 1005.5
20260508015602 42 254 2.0 2.0 0.00 0.10 0.10 68 1005.5
20260508015059 42 260 8.0 8.0 0.00 0.10 0.10 67 1005.5
20260508014555 42 226 4.0 5.0 0.00 0.10 0.10 69 1005.3
20260508014052 42 229 4.0 7.0 0.00 0.10 0.10 69 1005.4
20260508013548 42 241 3.0 5.0 0.00 0.10 0.10 69 1005.4
20260508013045 42 246 3.0 3.0 0.00 0.10 0.10 68 1005.6
20260508012542 43 193 2.0 2.0 0.00 0.10 0.10 67 1005.6
20260508012040 43 273 3.0 5.0 0.00 0.10 0.10 66 1005.7
20260508011538 43 295 4.0 5.0 0.00 0.10 0.10 65 1005.7
20260508011035 43 59 1.0 2.0 0.00 0.10 0.10 65 1005.8
20260508010531 43 55 1.0 1.0 0.00 0.10 0.10 66 1005.7
20260508010029 43 275 3.0 3.0 0.00 0.10 0.10 64 1005.6
20260508005525 44 209 3.0 3.0 0.00 0.10 0.10 64 1005.6
20260508005022 43 217 6.0 8.0 0.00 0.10 0.10 63 1005.1
20260508004518 44 244 1.0 2.0 0.00 0.10 0.10 64 1005.4
20260508004015 43 213 5.0 7.0 0.00 0.10 0.10 65 1005.4
20260508003512 44 228 2.0 2.0 0.00 0.10 0.10 64 1005.4
20260508003009 44 195 1.0 2.0 0.00 0.10 0.10 64 1005.4
20260508002505 43 260 4.0 5.0 0.00 0.10 0.10 65 1005.2
20260508002002 43 225 4.0 5.0 0.00 0.10 0.10 64 1005.3
20260508001458 44 188 2.0 2.0 0.00 0.10 0.10 65 1005.2
20260508000955 44 197 2.0 2.0 0.00 0.10 0.10 67 1005.2
20260508000450 44 233 3.0 3.0 0.00 0.10 0.10 65 1005.4
20260507235948 44 211 3.0 3.0 0.00 0.10 0.10 64 1004.9
20260507235444 45 240 3.0 5.0 0.00 0.10 0.10 62 1005.2
20260507234942 45 258 4.0 5.0 0.00 0.10 0.10 62 1005.1
20260507234438 45 199 3.0 5.0 0.00 0.10 0.10 61 1004.8
20260507233935 45 306 7.0 8.0 0.00 0.10 0.10 61 1004.8
20260507233432 46 254 4.0 6.0 0.00 0.10 0.10 62 1004.7
20260507232930 46 265 6.0 8.0 0.00 0.10 0.10 61 1004.5
20260507232426 46 278 6.0 9.0 0.00 0.10 0.10 60 1004.9
20260507231924 46 261 5.0 9.0 0.00 0.10 0.10 61 1004.8
20260507231420 46 265 9.0 13.0 0.00 0.10 0.10 60 1004.7
20260507230917 46 265 7.0 8.0 0.00 0.10 0.10 60 1004.6
20260507230415 46 279 9.0 13.0 0.00 0.10 0.10 60 1004.7
20260507225914 47 101 7.0 9.0 0.00 0.10 0.10 59 1004.6
20260507225411 47 245 8.0 9.0 0.00 0.10 0.10 58 1004.5
20260507224907 48 264 9.0 14.0 0.00 0.10 0.10 58 1004.5
20260507224403 48 274 5.0 6.0 0.00 0.10 0.10 56 1004.4
20260507223900 48 201 2.0 7.0 0.00 0.10 0.10 58 1004.2
20260507223356 48 301 5.0 7.0 0.00 0.10 0.10 57 1004.5
20260507222853 49 273 9.0 14.0 0.00 0.10 0.10 57 1004.2
20260507222349 50 237 5.0 7.0 0.00 0.10 0.10 57 1004.2
20260507221846 50 267 14.0 20.0 0.00 0.10 0.10 55 1003.7
20260507221343 50 272 7.0 11.0 0.00 0.10 0.10 56 1003.9
20260507220839 50 342 7.0 8.0 0.00 0.10 0.10 55 1003.7
20260507220337 51 217 7.0 10.0 0.00 0.10 0.10 55 1003.9
20260507215833 51 253 15.0 24.0 0.00 0.10 0.10 55 1003.8
20260507215331 51 267 10.0 15.0 0.00 0.10 0.10 56 1003.7
20260507214827 51 324 7.0 10.0 0.00 0.10 0.10 55 1003.8
20260507214325 51 300 5.0 8.0 0.00 0.10 0.10 55 1003.8
20260507213820 52 310 7.0 13.0 0.00 0.10 0.10 56 1003.6
20260507213318 52 269 6.0 9.0 0.00 0.10 0.10 57 1003.6
20260507212814 52 116 3.0 5.0 0.00 0.10 0.10 57 1003.5
20260507212310 51 244 10.0 13.0 0.00 0.10 0.10 59 1003.4
20260507211806 52 26 3.0 5.0 0.00 0.10 0.10 59 1003.3
20260507211303 53 267 8.0 10.0 0.00 0.10 0.10 58 1003.2
20260507210800 53 263 3.0 7.0 0.00 0.10 0.10 59 1003.2
20260507210256 51 235 8.0 9.0 0.00 0.10 0.10 61 1003.4
20260507205753 53 266 6.0 9.0 0.00 0.10 0.10 59 1003.1
20260507205250 53 214 5.0 8.0 0.00 0.10 0.10 61 1003.3
20260507204746 53 313 4.0 7.0 0.00 0.10 0.10 59 1002.6
20260507204244 53 251 8.0 9.0 0.00 0.10 0.10 60 1002.9
20260507203742 54 52 4.0 6.0 0.00 0.10 0.10 60 1002.7
20260507203239 55 276 6.0 7.0 0.00 0.10 0.10 60 1002.7
20260507202735 55 238 3.0 5.0 0.00 0.10 0.10 59 1002.8
20260507202231 53 263 11.0 13.0 0.00 0.10 0.10 60 1002.7
20260507201726 54 182 4.0 6.0 0.00 0.10 0.10 62 1002.5
20260507201223 54 248 5.0 7.0 0.00 0.10 0.10 62 1002.7
20260507200720 53 335 5.0 7.0 0.00 0.10 0.10 58 1002.3
20260507200216 55 323 5.0 6.0 0.00 0.10 0.10 59 1002.4
20260507195712 55 279 3.0 3.0 0.00 0.10 0.10 60 1002.4
20260507195209 56 186 7.0 9.0 0.00 0.10 0.10 58 1002.4
20260507194706 55 255 3.0 5.0 0.00 0.10 0.10 58 1002.1
20260507194202 55 278 5.0 7.0 0.00 0.10 0.10 58 1002.3
20260507193659 54 252 5.0 6.0 0.00 0.10 0.10 59 1002.3
20260507193156 55 285 4.0 6.0 0.00 0.10 0.10 60 1002.4
20260507192652 56 278 3.0 3.0 0.00 0.10 0.10 59 1002.6
20260507192149 56 271 6.0 8.0 0.00 0.10 0.10 59 1002.3
20260507191645 57 272 9.0 10.0 0.00 0.10 0.10 58 1002.5
20260507191142 55 280 12.0 16.0 0.00 0.10 0.10 61 1002.4
20260507190639 55 250 9.0 11.0 0.00 0.10 0.10 62 1002.2
20260507190138 56 250 7.0 10.0 0.00 0.10 0.10 64 1002.5
20260507185636 55 302 3.0 3.0 0.00 0.10 0.10 70 1002.4
20260507185132 53 301 4.0 5.0 0.00 0.10 0.10 70 1002.7
20260507184630 54 209 4.0 6.0 0.00 0.10 0.10 69 1002.8
20260507184128 53 267 7.0 9.0 0.00 0.10 0.10 72 1002.6
20260507183624 53 280 9.0 10.0 0.00 0.10 0.10 70 1002.7
20260507183121 54 294 5.0 7.0 0.00 0.10 0.10 68 1002.5
20260507182617 54 22 5.0 7.0 0.00 0.10 0.10 67 1002.8
20260507182113 54 51 3.0 7.0 0.00 0.10 0.10 68 1002.9
20260507181610 54 262 4.0 5.0 0.00 0.10 0.10 72 1002.9
20260507181106 53 259 6.0 7.0 0.00 0.10 0.10 71 1002.9
20260507180603 53 334 4.0 8.0 0.00 0.10 0.10 70 1003.0
20260507180100 53 233 2.0 2.0 0.00 0.10 0.10 71 1002.8
20260507175556 53 246 10.0 13.0 0.00 0.10 0.10 68 1002.7
20260507175054 54 299 3.0 5.0 0.00 0.10 0.10 67 1002.7
20260507174550 54 239 3.0 3.0 0.00 0.10 0.10 65 1002.7
20260507174048 54 267 5.0 6.0 0.00 0.10 0.10 66 1002.4
20260507173545 55 241 4.0 6.0 0.00 0.10 0.10 67 1002.9
20260507173042 55 248 5.0 7.0 0.00 0.10 0.10 69 1002.7
20260507172538 55 265 4.0 5.0 0.00 0.10 0.10 66 1002.6
20260507172035 54 220 2.0 2.0 0.00 0.10 0.10 67 1002.9
20260507171530 53 185 5.0 6.0 0.00 0.10 0.10 67 1002.8
20260507171028 54 183 10.0 17.0 0.00 0.10 0.10 65 1003.2
20260507170524 53 235 11.0 13.0 0.00 0.10 0.10 69 1003.0
20260507170021 53 218 7.0 8.0 0.00 0.10 0.10 69 1003.2
20260507165517 53 253 6.0 8.0 0.00 0.10 0.10 68 1003.0
20260507165014 53 272 8.0 8.0 0.00 0.10 0.10 67 1003.2
20260507164510 53 245 4.0 6.0 0.00 0.10 0.10 68 1003.3
20260507164007 54 277 4.0 5.0 0.00 0.10 0.10 66 1003.3
20260507163504 54 244 5.0 5.0 0.00 0.10 0.10 64 1003.1
20260507163002 54 266 5.0 6.0 0.00 0.10 0.10 63 1003.3
20260507162457 54 269 5.0 6.0 0.00 0.10 0.10 66 1003.4
20260507161954 54 252 5.0 7.0 0.00 0.10 0.10 64 1003.1
20260507161450 54 236 3.0 3.0 0.00 0.10 0.10 65 1003.2
20260507160947 54 239 5.0 6.0 0.00 0.10 0.10 64 1003.6
20260507160443 54 190 1.0 2.0 0.00 0.10 0.10 65 1003.5
20260507155939 54 214 5.0 6.0 0.00 0.10 0.10 67 1003.6
20260507155435 54 259 5.0 5.0 0.00 0.10 0.10 67 1003.5
20260507154932 54 181 2.0 3.0 0.00 0.10 0.10 67 1003.4
20260507154429 53 199 2.0 3.0 0.00 0.10 0.10 72 1003.5
20260507153926 53 46 2.0 2.0 0.00 0.10 0.10 72 1003.7
20260507153423 53 41 2.0 2.0 0.00 0.10 0.10 69 1003.9
20260507152919 54 343 2.0 2.0 0.00 0.10 0.10 68 1003.5
20260507152415 54 342 4.0 5.0 0.00 0.10 0.10 71 1003.6
20260507151911 53 24 4.0 6.0 0.00 0.10 0.10 72 1003.6
20260507151408 53 174 0.0 0.0 0.00 0.10 0.10 70 1003.8
20260507150905 53 231 1.0 2.0 0.00 0.10 0.10 72 1003.7
20260507150402 55 49 1.0 2.0 0.00 0.10 0.10 72 1003.9
20260507145858 53 229 4.0 6.0 0.00 0.10 0.10 71 1003.9
20260507145354 54 299 3.0 3.0 0.00 0.10 0.10 76 1003.9
20260507144851 55 173 1.0 1.0 0.00 0.10 0.10 75 1003.8
20260507144349 53 257 6.0 7.0 0.00 0.10 0.10 75 1004.0
20260507143845 54 148 4.0 5.0 0.00 0.10 0.10 77 1003.9
20260507143343 52 274 2.0 2.0 0.00 0.10 0.10 77 1004.0
20260507142839 52 290 3.0 6.0 0.00 0.10 0.10 76 1004.2
20260507142335 52 262 11.0 13.0 0.00 0.10 0.10 77 1004.4
20260507141832 52 297 4.0 5.0 0.00 0.10 0.10 76 1004.4
20260507141328 52 261 5.0 6.0 0.00 0.10 0.10 79 1004.0
20260507140825 52 317 2.0 3.0 0.00 0.10 0.10 77 1004.5
20260507140322 53 288 1.0 1.0 0.00 0.10 0.10 78 1004.2
20260507135820 52 39 2.0 2.0 0.00 0.10 0.10 80 1004.5
20260507135316 52 253 3.0 5.0 0.00 0.10 0.10 83 1004.2
20260507134814 51 39 1.0 2.0 0.00 0.10 0.10 84 1004.2
20260507134309 51 222 4.0 6.0 0.00 0.10 0.10 85 1004.5
20260507133805 50 272 5.0 7.0 0.00 0.10 0.10 84 1004.2
20260507133301 50 261 8.0 9.0 0.00 0.10 0.10 83 1004.2
20260507132800 50 180 1.0 2.0 0.00 0.10 0.10 87 1004.4
20260507132256 50 220 1.0 2.0 0.00 0.10 0.10 86 1004.2
20260507131753 50 132 1.0 1.0 0.00 0.10 0.10 88 1004.6
20260507131250 50 9 3.0 3.0 0.00 0.10 0.10 88 1004.6
20260507130747 49 262 5.0 7.0 0.00 0.10 0.10 88 1004.5
20260507130244 49 251 4.0 6.0 0.00 0.10 0.10 88 1004.7
20260507125743 48 13 3.0 5.0 0.00 0.10 0.10 88 1004.7
20260507125240 48 36 3.0 5.0 0.00 0.10 0.10 89 1004.7
20260507124737 47 42 3.0 3.0 0.00 0.10 0.10 89 1004.7
20260507124233 47 240 3.0 5.0 0.00 0.10 0.10 91 1004.7
20260507123732 47 32 2.0 2.0 0.00 0.10 0.10 90 1004.4
20260507123229 46 346 3.0 3.0 0.00 0.10 0.10 90 1004.6
20260507122724 46 253 4.0 6.0 0.00 0.10 0.10 91 1004.8
20260507122220 46 294 7.0 8.0 0.00 0.10 0.10 91 1004.7
20260507121716 46 324 4.0 7.0 0.00 0.10 0.10 92 1005.0
20260507121213 45 14 2.0 3.0 0.00 0.10 0.10 92 1004.9
20260507120709 45 267 3.0 3.0 0.00 0.10 0.10 93 1005.1
20260507120206 44 308 7.0 9.0 0.00 0.10 0.10 92 1004.9
20260507115702 44 295 3.0 5.0 0.00 0.10 0.10 93 1004.9
20260507115158 44 169 1.0 1.0 0.00 0.10 0.10 94 1005.0
20260507114653 43 344 4.0 5.0 0.00 0.10 0.10 93 1004.7
20260507114151 43 165 0.0 0.0 0.00 0.10 0.10 94 1004.7
20260507113648 43 253 4.0 7.0 0.00 0.10 0.10 94 1004.6
20260507113145 43 285 5.0 6.0 0.00 0.10 0.10 94 1004.6
20260507112643 43 303 3.0 3.0 0.00 0.10 0.10 95 1004.6
20260507112139 43 244 2.0 2.0 0.00 0.10 0.10 96 1004.8
20260507111637 43 288 3.0 5.0 0.00 0.10 0.10 95 1004.6
20260507111133 42 195 1.0 1.0 0.00 0.10 0.10 96 1004.9
20260507110629 42 295 3.0 5.0 0.00 0.10 0.10 96 1004.7
20260507110126 42 264 6.0 10.0 0.00 0.10 0.10 97 1004.9
20260507105623 42 217 2.0 3.0 0.00 0.10 0.10 97 1005.1
20260507105119 42 252 4.0 5.0 0.00 0.10 0.10 97 1005.2
20260507104617 42 281 6.0 7.0 0.00 0.10 0.10 98 1004.8
20260507104113 42 274 2.0 2.0 0.00 0.10 0.10 98 1004.8
20260507103609 42 252 4.0 5.0 0.00 0.10 0.10 98 1004.6
20260507103106 42 144 0.0 1.0 0.00 0.10 0.10 99 1005.0
20260507102602 41 201 2.0 3.0 0.00 0.10 0.10 99 1004.6
20260507102059 41 227 3.0 3.0 0.00 0.10 0.10 99 1004.5
20260507101554 41 182 0.0 1.0 0.00 0.10 0.10 99 1004.4
20260507101051 41 152 0.0 1.0 0.00 0.10 0.10 99 1004.7
20260507100548 41 196 1.0 1.0 0.00 0.10 0.10 99 1004.5
20260507100046 41 203 1.0 2.0 0.00 0.10 0.10 99 1004.4
20260507095544 41 223 2.0 2.0 0.00 0.10 0.10 99 1004.5
20260507095040 41 158 0.0 0.0 0.00 0.10 0.10 99 1004.6
20260507094536 41 208 1.0 1.0 0.00 0.10 0.10 99 1004.2
20260507094033 41 78 1.0 1.0 0.00 0.10 0.10 99 1004.5
20260507093531 41 266 3.0 3.0 0.00 0.10 0.10 99 1004.4
20260507093029 41 219 2.0 2.0 0.00 0.10 0.10 99 1004.6
20260507092525 41 217 3.0 5.0 0.00 0.10 0.10 99 1004.7
20260507092022 41 191 2.0 2.0 0.00 0.10 0.10 99 1004.5
20260507091519 41 225 3.0 3.0 0.00 0.10 0.10 99 1004.1
20260507091015 41 155 0.0 0.0 0.00 0.10 0.10 99 1003.5
20260507090511 41 6 1.0 2.0 0.00 0.10 0.10 99 1003.8
20260507090008 41 176 0.0 0.0 0.00 0.10 0.10 99 1003.7
20260507085505 41 180 0.0 0.0 0.00 0.10 0.10 99 1003.7
20260507085001 41 197 3.0 3.0 0.00 0.10 0.10 99 1003.8
20260507084458 41 198 0.0 1.0 0.00 0.10 0.10 99 1004.0
20260507083955 41 354 1.0 2.0 0.00 0.10 0.10 99 1004.1
20260507083452 41 201 2.0 2.0 0.00 0.10 0.10 99 1004.4
20260507082948 41 211 3.0 5.0 0.00 0.10 0.10 99 1004.7
20260507082444 41 256 3.0 3.0 0.00 0.10 0.10 99 1004.7
20260507081941 42 241 4.0 5.0 0.00 0.10 0.10 99 1004.7
20260507081437 42 253 1.0 2.0 0.00 0.10 0.10 99 1004.2
20260507080935 42 88 1.0 2.0 0.00 0.10 0.10 99 1004.7
20260507080430 42 180 2.0 2.0 0.00 0.10 0.10 99 1004.0
20260507075926 41 47 3.0 3.0 0.00 0.10 0.10 99 1003.8
20260507075422 41 169 0.0 1.0 0.00 0.10 0.10 99 1004.0
20260507074919 41 149 1.0 1.0 0.00 0.10 0.10 99 1004.4
20260507074416 41 162 1.0 1.0 0.00 0.10 0.10 99 1004.1
20260507073914 41 249 1.0 2.0 0.00 0.10 0.10 99 1004.4
20260507073410 41 57 2.0 2.0 0.00 0.10 0.10 99 1004.2
20260507072907 41 145 0.0 1.0 0.00 0.10 0.10 99 1004.1
20260507072404 41 352 1.0 2.0 0.00 0.10 0.10 99 1003.9
20260507071902 42 29 3.0 3.0 0.00 0.10 0.10 99 1003.7
20260507071359 42 37 1.0 2.0 0.00 0.10 0.10 99 1003.4
20260507070855 42 48 2.0 3.0 0.00 0.10 0.10 99 1003.5
20260507070353 42 217 5.0 8.0 0.00 0.10 0.10 99 1003.3
20260507065849 42 155 2.0 3.0 0.00 0.10 0.10 99 1003.5
20260507065346 42 309 3.0 5.0 0.00 0.10 0.10 99 1003.7
20260507064843 42 139 1.0 1.0 0.00 0.10 0.10 99 1003.5
20260507064341 42 35 4.0 7.0 0.00 0.10 0.10 99 1003.8
20260507063839 42 99 0.0 1.0 0.00 0.10 0.10 99 1003.8
20260507063335 42 28 1.0 2.0 0.00 0.10 0.10 99 1004.0
20260507062832 42 317 6.0 9.0 0.00 0.10 0.10 99 1003.5
20260507062329 42 337 4.0 5.0 0.00 0.10 0.10 99 1003.8
20260507061827 42 350 3.0 3.0 0.00 0.10 0.10 99 1003.5
20260507061325 43 43 3.0 5.0 0.00 0.10 0.10 99 1003.3
20260507060824 43 46 1.0 1.0 0.00 0.10 0.10 99 1003.6
20260507060320 43 192 2.0 3.0 0.00 0.10 0.10 99 1003.7
20260507055816 43 158 1.0 1.0 0.00 0.10 0.10 99 1003.8
20260507055311 43 183 0.0 1.0 0.00 0.10 0.10 99 1003.9
20260507054808 43 88 1.0 2.0 0.00 0.10 0.10 99 1003.7
20260507054304 43 82 2.0 2.0 0.00 0.10 0.10 99 1003.4
20260507053802 43 313 3.0 3.0 0.05 0.10 0.10 99 1003.0
20260507053259 43 51 2.0 2.0 0.05 0.10 0.10 99 1003.8
20260507052758 43 179 2.0 3.0 0.00 0.09 0.09 99 1003.7
20260507052254 43 306 2.0 2.0 0.00 0.09 0.09 99 1003.9
20260507051753 44 309 2.0 2.0 0.00 0.09 0.09 99 1003.9
20260507051249 44 190 1.0 1.0 0.00 0.09 0.09 99 1003.6
20260507050746 44 239 1.0 2.0 0.00 0.09 0.09 99 1003.6
20260507050243 44 47 5.0 7.0 0.00 0.09 0.09 99 1003.5
20260507045740 44 350 3.0 3.0 0.00 0.09 0.09 99 1003.5
20260507045235 44 358 5.0 6.0 0.07 0.09 0.09 99 1003.5
20260507044733 44 23 3.0 3.0 0.12 0.09 0.09 99 1003.3
20260507044229 44 36 4.0 7.0 0.12 0.08 0.08 99 1003.7
20260507043726 44 51 3.0 3.0 0.19 0.08 0.08 99 1003.8
20260507043223 44 36 2.0 3.0 0.19 0.06 0.06 99 1003.9
20260507042720 45 85 1.0 1.0 0.17 0.05 0.05 99 1003.9
20260507042220 45 55 2.0 3.0 0.12 0.04 0.04 99 1003.9
20260507041718 45 292 2.0 3.0 0.07 0.02 0.02 99 1003.9
20260507041214 45 19 2.0 2.0 0.12 0.02 0.02 99 1003.8
20260507040711 45 6 5.0 7.0 0.17 0.01 0.01 99 1003.8
20260507040207 45 31 4.0 7.0 0.12 0.00 0.00 99 1003.2